Regional Weather Roundup
Issued by NWS

Home | Current Version | Previous Version | Graphics & Text | Print | Product List | Glossary On
Versions: 1 2 3 4 5 6 7 8 9 10 11 12 13 14 15 16 17 18 19 20 21 22 23 24 25 26 27 28 29 30 31 32 33 34 35 36 37 38 39 40 41 42 43 44 45 46 47 48 49 50
000
ASUS43 KMKX 300800
RWRWI

WISCONSIN REGIONAL WEATHER ROUNDUP
NATIONAL WEATHER SERVICE MILWAUKEE/SULLIVAN WI
300 AM CDT TUE AUG 30 2016

NOTE: "FAIR" INDICATES FEW OR NO CLOUDS BELOW 12,000 FEET WITH NO
SIGNIFICANT WEATHER AND/OR OBSTRUCTIONS TO VISIBILITY.

WIZ001-002-006>008-014>016-023>028-300900-
NORTHWEST WISCONSIN

CITY           SKY/WX    TMP DP  RH WIND       PRES   REMARKS
SUPERIOR ARPT  MOCLDY    66  65  94 W8        30.13F
ASHLAND        CLOUDY    66  64  93 SW8       30.13F
HAYWARD        CLOUDY    63  62  97 CALM      30.15F
SIREN          CLOUDY    65  64  97 NW3       30.16F
CUMBERLAND     CLOUDY    64  59  82 W8        30.15F
RICE LAKE      LGT RAIN  67  59  75 NW5       30.16R
CHETEK         NOT AVBL
LADYSMITH      LGT RAIN  67  62  83 NW7       30.15F
EAU CLAIRE     CLOUDY    66  64  93 SW8       30.16F
MENOMONIE      CLOUDY    67  65  93 SW8       30.20S
NEW RICHMOND   LGT RAIN  66  65  99 S13       30.17F
OSCEOLA        LGT RAIN  67  67  99 NW9G18    30.17R
$$

WIZ003>005-009-010-017-018-300900-
NORTH CENTRAL WISCONSIN

CITY           SKY/WX    TMP DP  RH WIND       PRES   REMARKS
MANITOWISH WTR NOT AVBL
ARBOR VITAE    CLOUDY    72  70  93 CALM      30.16S
WOODRUFF       CLOUDY    72  70  93 CALM      30.16S
RHINELANDER    CLOUDY    71  71 100 CALM      30.15F
EAGLE RIVER    CLOUDY    68  68 100 SW5       30.15F
LAND O LAKES   CLOUDY    70  69  97 W3        30.16S
PHILLIPS       CLOUDY    65  62  90 NW3       30.13S
TOMAHAWK       LGT RAIN  68  67  94 CALM      30.16F
MEDFORD        CLOUDY    65  65  99 S3        30.15F
MERRILL        CLOUDY    71  71 100 SW3       30.17F
$$

WIZ029-030-035-036-043>047-300900-
CENTRAL WISCONSIN

CITY           SKY/WX    TMP DP  RH WIND       PRES   REMARKS
WAUSAU         PTCLDY    71  69  93 W3        30.14F
MOSINEE        CLOUDY    68  68 100 W6        30.18F
MARSHFIELD     PTCLDY    70  66  87 W3        30.16F
STEVENS POINT  CLOUDY    69  68  99 W3        30.17F
WAUPACA        CLOUDY    69  69  99 CALM      30.16F FOG
WAUTOMA        CLOUDY    67  66  97 CALM      30.17F
WISC RAPIDS    MOCLDY    69  69 100 W5        30.18F FOG
CAMP DOUGLAS   CLOUDY    66  66 100 SE3       30.17F FOG
$$

WIZ011>013-019>022-031-037>040-048>050-300900-
NORTHEAST WISCONSIN

CITY           SKY/WX    TMP DP  RH WIND       PRES   REMARKS
ANTIGO         CLOUDY    69  69  99 CALM      30.18S
SHAWANO        CLOUDY    71  69  92 CALM      30.16R
OCONTO         NOT AVBL
STURGEON BAY   MOCLDY    71  69  93 SW6       30.15S
GREEN BAY      PTCLDY    66  66 100 CALM      30.15F FOG
MANITOWOC      NOT AVBL
APPLETON       CLOUDY    70  70 100 W6        30.15F
CLINTONVILLE   MOCLDY    68  68 100 SW3       30.15F
OSHKOSH        CLOUDY    70  68  93 SW5       30.16F
$$

WIZ032>034-041-042-053>061-300900-
SOUTHWEST WISCONSIN

CITY           SKY/WX    TMP DP  RH WIND       PRES   REMARKS
LA CROSSE      CLOUDY    70  69  97 CALM      30.17F FOG
SPARTA         FOG       64  64 100 N3        30.18F VSB 3/4
VIROQUA        CLOUDY    69  69 100 CALM      30.20F VSB 1/2
BOSCOBEL       LGT RAIN  72  71  97 CALM      30.18F VSB 1/2
PRAIRIE DU CHI LGT RAIN  72  71  96 CALM      30.17F VSB 1/2
PLATTEVILLE    PTCLDY    70  70 100 CALM      30.20S
$$

WIZ056-057-062-063-064-067-068-300900-
SOUTH CENTRAL WISCONSIN

CITY           SKY/WX    TMP DP  RH WIND       PRES   REMARKS
REEDSBURG      NOT AVBL
BARABOO/DELLS  CLOUDY    69  67  94 CALM      30.19S FOG
LONE ROCK      CLOUDY    71  70  96 CALM      30.18F FOG
MINERAL POINT  LGT RAIN  72  70  94 CALM      30.20S
MADISON        CLOUDY    72  68  87 SW3       30.18S
MIDDLETON      CLOUDY    70  70  99 CALM      30.19F
WATERTOWN      MOCLDY    69  69 100 CALM      30.18F
MONROE         CLOUDY    70  68  94 CALM      30.19F
JANESVILLE     CLOUDY    70  68  94 CALM      30.18S FOG
$$

WIZ051-052-058>065-066-070>072-300900-
SOUTHEAST WISCONSIN

CITY           SKY/WX    TMP DP  RH WIND       PRES   REMARKS
MILWAUKEE      CLOUDY    75  67  76 CALM      30.16F
WAUKESHA       CLOUDY    68  64  88 CALM      30.19F
MILWAUKEE/TIMM PTCLDY    70  64  83 CALM      30.18S
RACINE         CLOUDY    72  69  90 MISG      30.18F
BURLINGTON     CLOUDY    66  65  98 CALM      30.17F
KENOSHA        PTCLDY    70  69  97 CALM      30.16F FOG
FOND DU LAC    CLOUDY    70  68  93 SW6       30.17F
SHEBOYGAN      CLOUDY    68  66  93 S3        30.16S
WEST BEND      CLOUDY    66  64  94 CALM      30.18S
JUNEAU         CLOUDY    69  67  95 S3        30.19F
$$

LSZ147-162-300900-
LAKE SUPERIOR

STATION/POSITION TIME  TEMP    WIND        PRES    WAVE
                       AIR SEA DIR/SP/G            HT/PER
                 (UTC) (F)     (DEG/KT/KT) (MB)    (FT/S)
W MID LAKE BUOY  0650   69 67  240/ 12/ 14 1018.1F   2/ 4
DEVILS ISLAND    0700   68     230/ 11/ 14 1019.7R
SAXON HARBOR     0740   66     200/  3/  3 1020.0F
$$

LMZ867-665-643>646-300900-
LAKE MICHIGAN

STATION/POSITION TIME  TEMP    WIND        PRES    WAVE
                       AIR SEA DIR/SP/G            HT/PER
                 (UTC) (F)     (DEG/KT/KT) (MB)    (FT/S)
CHAMBERS ISLAND  0700   73     190/  4/  8 1020.0
N MID LAKE BUOY  0650   72 71  220/ 12/ 14 1018.9F   2/ 4
NORTHPORT PIER   0700   74      CALM  /  5 1019.6S
SISTER BAY       0707   75     240/  9/ 11   N/A
KEWAUNEE LAKESHO 0700   69     290/  3/  4 1020.3F
SHEBOYGAN LAKESH 0700   70     210/  6/  7 1020.8F
PORT WASHINGTON  0700   73     260/  2/  4 1022.4F
ATWATER BUOY     0700   71     190/  4/  4   N/A
MILWAUKEE LAKESH 0710   73     220/  4/  5   N/A
S MID LAKE BUOY  0650   76 76  180/  4/  4 1021.3F   0
KENOSHA   LAKESH 0700   74        CALM     1021.3F
$$

TC  - TEMPERATURE IN CELSIUS
VSB - VISIBILITY IN STATUTE MILES
WCI - WIND CHILL INDEX
HX  - HEAT INDEX




USA.gov is the U.S. government's official web portal to all federal, state and local government web resources and services.